Погода в Нечаянном

Украина / Николаевская область     46°56′30″N   31°33′07″E
темп.,
°C
ветер,
м/с
пор.,
м/с
влажн.,
%
обл.,
%
осадки,
мм/ч
давл.,
гПа
погр.,
м
12 мая, ср
ср1200:00+13всв367240 0.0 1015194
03:00+9всв367625 0.0 1014164
06:00+7св48830 0.0 1015200
09:00+11св56642 0.0 1014800
12:00+13св5451100 0.0 10141738
15:00+15св444746 0.0 10131646
18:00+14св445660 0.0 1013891
21:00+10св467048 0.0 1013163
13 мая, чт
чт1300:00+8в347345 0.0 101391
03:00+7всв33796 0.0 101241
06:00+8в3474100 0.0 1012130
09:00+13вюв456081 0.0 1012623
12:00+18юв5549100 0.0 10111127
15:00+19ю5649100 0.0 10111161
18:00+18ю465386 0.0 1010841
21:00+13ю347185 0.0 101047
14 мая, пт
пт1400:00+12ююв3377100 0.0 100927
03:00+11ююв368590 0.0 1009114
06:00+10ююв228829 0.0 100916
09:00+17ю45645 0.0 1009594
12:00+21ю6751100 0.0 1009864
15:00+20ююз675776 0.0 1009927
18:00+19ююз55635 0.0 1009645
21:00+14ююз488993 0.0 1010163
15 мая, сб
сб1500:00+13ю479083 0.0 1010127
03:00+13ююз369110 0.0 1010100
06:00+13юз33878 0.0 101160
09:00+18зюз3464100 0.0 1012506
12:00+22зюз345088 0.0 10121408
15:00+24ююз444155 0.0 10112280
18:00+21ю554988 0.0 1011692
21:00+15ю227212 0.0 101119
16 мая, вс
вс1600:00+14юв117575 0.0 101111
03:00+14всв3374100 0.0 101029
06:00+14всв3673100 0.0 1009117
09:00+19всв5861100 0.0 1008405
12:00+25в5645100 0.0 10071688
15:00+25в3543100 0.0 10052054
18:00+22ссз2357100 0.0 100337
21:00+19вюв71480100 0.2 1001426